����,�C�@��,���@�x,���@��,���@��,���@��,�ϐ�[,�ϐ�d��1,�ϐ�d��2,�ϐ�d��3,�J�@��,�~��o��,�~�ይ�x�i��j,�~�ይ�x�i���j,�~�ይ�x�i���j,���,�Z��~����1,�Z��~����2,�Z��~����3,�Z��~����4,�J�ᔻ��,�Z���T���x
����,��,��,kw/�u,��,m/s,cm,kg/�u,kg/�u,kg/�u,mm,1=�L_0=��,1=�L_0=��,1=�L_0=��,1=�L_0=��,p,p,p,p,p,��,��
2024-04-01 00:00:00,7.59,64.97,0.000,0.00,0.24,0.0,1891.99,0.00,-182.14,0.0,0,0,0,0,0,0.00,0.00,0.00,0.00,6.32,-224.40
2024-04-01 00:10:00,1.65,65.21,0.210,0.00,0.29,0.0,1892.21,0.00,246.83,0.0,0,0,0,0,0,21.00,0.00,0.00,0.00,2.82,-224.90
2024-04-01 00:20:00,8.18,64.70,0.000,0.00,0.33,0.0,1899.70,0.00,120.88,0.0,0,0,0,0,0,0.00,0.00,0.00,0.00,7.07,-226.50
2024-04-01 00:30:00,7.91,64.84,0.000,0.00,0.28,0.0,1892.22,0.00,-167.94,0.0,0,0,0,0,0,21.00,0.00,0.00,0.00,6.89,-227.30
2024-04-01 00:40:00,7.92,60.33,0.000,0.00,0.29,0.0,1894.90,0.00,234.30,0.0,0,0,0,0,0,22.00,0.00,0.00,0.00,6.98,-224.60
2024-04-01 00:50:00,NAN,60.44,0.330,0.00,0.25,0.0,1898.66,0.00,-169.29,0.0,0,0,0,0,0,0.00,0.00,0.00,0.00,6.72,-221.70
2024-04-01 01:00:00,6.07,60.74,0.128,0.00,0.34,0.1,1892.50,0.00,30.81,0.0,0,0,0,0,0,21.00,0.00,0.00,0.00,6.62,-222.50
2024-04-01 01:10:00,7.51,67.21,0.000,0.00,0.35,0.0,1896.94,0.00,-146.94,0.0,0,0,0,0,0,22.00,0.00,0.00,0.00,6.37,-223.60
2024-04-01 01:20:00,7.75,67.64,0.000,0.00,0.24,0.0,1896.01,0.00,-211.92,0.0,0,0,0,0,0,0.00,0.00,0.00,0.00,6.64,-224.20
2024-04-01 01:30:00,7.85,67.71,0.000,0.00,0.27,0.0,1896.57,0.00,-228.20,0.0,0,0,0,0,0,21.00,0.00,0.00,0.00,6.67,-224.00
2024-04-01 01:40:00,7.77,68.33,0.000,0.00,0.23,0.0,1898.30,0.00,-223.12,0.0,0,0,0,0,0,0.00,0.00,0.00,0.00,6.50,-225.00
2024-04-01 01:50:00,5.11,68.63,0.214,0.00,0.30,0.0,1892.21,0.00,-184.19,0.0,0,0,0,0,0,21.00,26.00,0.00,0.00,6.37,-225.80
2024-04-01 02:00:00,4.06,68.43,0.348,0.00,0.20,1.4,1897.27,0.00,202.91,0.0,0,0,0,0,0,22.00,0.00,0.00,0.00,6.17,-226.20
2024-04-01 02:10:00,4.73,68.70,0.249,0.00,0.33,0.0,1896.31,7.45,58.27,0.0,0,0,0,0,0,0.00,0.00,0.00,0.00,6.44,-227.00
2024-04-01 02:20:00,7.67,69.76,0.000,0.00,0.26,0.0,1895.20,0.00,-189.97,0.0,0,0,0,0,0,21.00,0.00,0.00,0.00,6.36,-225.70
2024-04-01 02:30:00,7.63,69.48,0.000,32.04,0.28,0.0,1899.03,0.00,-226.52,0.0,0,0,0,0,0,0.00,0.00,0.00,0.00,6.32,-225.20
2024-04-01 02:40:00,7.81,70.73,0.000,0.00,0.22,0.0,1895.61,0.00,737.10,0.0,0,0,0,0,0,22.00,0.00,0.00,0.00,6.17,-226.20
2024-04-01 02:50:00,5.90,71.93,0.060,0.00,0.30,0.0,1899.05,0.00,300.38,0.0,0,0,0,0,0,21.00,0.00,0.00,0.00,5.95,-225.30
2024-04-01 03:00:00,5.12,71.69,0.261,0.00,0.28,0.0,1893.31,3.73,-26.41,0.0,0,0,0,0,0,0.00,0.00,0.00,0.00,5.29,-225.20
2024-04-01 03:10:00,5.19,72.37,0.321,0.00,0.30,0.1,1892.50,0.00,43.67,0.0,0,0,0,0,0,21.00,0.00,0.00,0.00,3.17,-226.30
2024-04-01 03:20:00,4.73,72.09,0.265,0.00,0.31,0.0,1895.93,0.00,268.29,0.0,0,0,0,0,0,22.00,0.00,0.00,0.00,5.30,-224.30
2024-04-01 03:30:00,4.49,72.24,0.229,0.00,0.34,0.0,1891.90,0.00,66.69,0.0,0,0,0,0,0,21.00,0.00,0.00,25.00,4.65,-224.10
2024-04-01 03:40:00,6.77,74.25,0.000,0.00,0.20,0.0,1898.90,0.00,-221.42,0.0,0,0,0,0,0,0.00,0.00,0.00,0.00,4.56,-223.10
2024-04-01 03:50:00,6.69,76.52,0.000,31.85,0.28,0.0,1892.88,0.00,-233.96,0.0,0,0,0,0,0,22.00,0.00,0.00,0.00,4.72,-221.40
2024-04-01 04:00:00,6.45,77.91,0.000,28.67,0.28,0.0,1892.89,0.00,-240.39,0.0,0,0,0,0,0,21.00,0.00,0.00,0.00,4.60,-221.60
2024-04-01 04:10:00,4.44,78.72,0.247,0.00,0.23,0.0,1892.94,0.00,30.81,0.0,0,0,0,0,0,0.00,0.00,0.00,0.00,4.40,-224.80
2024-04-01 04:20:00,4.77,80.20,0.086,0.00,0.18,0.0,1899.90,0.00,-105.29,0.0,0,0,0,0,0,21.00,0.00,0.00,0.00,4.17,-224.40
2024-04-01 04:30:00,4.41,81.10,0.159,0.00,0.21,0.0,1891.92,0.00,88.33,0.0,0,0,0,0,0,22.00,27.00,0.00,0.00,4.22,-225.00
2024-04-01 04:40:00,5.17,80.80,0.160,0.00,0.18,0.8,1898.89,0.00,-57.56,0.0,0,0,0,0,0,21.00,0.00,0.00,0.00,3.40,-221.60
2024-04-01 04:50:00,5.98,81.10,0.000,0.00,0.19,0.0,1898.44,0.00,-160.11,0.0,0,0,0,0,0,0.00,0.00,0.00,0.00,4.18,-224.10
2024-04-01 05:00:00,5.98,81.70,0.000,49.27,0.14,0.0,1897.54,0.00,-250.54,0.0,0,0,0,0,0,22.00,0.00,0.00,0.00,4.18,-224.60
2024-04-01 05:10:00,5.88,81.60,0.000,56.01,0.14,0.0,1895.58,0.00,-254.61,0.0,0,0,0,0,0,21.00,0.00,0.00,0.00,4.20,-223.30
2024-04-01 05:20:00,5.91,82.30,0.000,79.27,0.12,0.1,1892.89,0.00,-256.64,0.0,0,0,0,0,0,0.00,0.00,0.00,0.00,4.07,-223.80
2024-04-01 05:30:00,5.71,82.30,0.000,0.00,0.17,0.1,1898.98,0.00,-260.37,0.0,0,0,0,0,0,21.00,0.00,0.00,0.00,3.90,-221.40
2024-04-01 05:40:00,5.46,82.70,0.004,0.00,0.10,0.3,1895.58,0.00,-263.41,0.0,0,0,0,0,0,22.00,0.00,0.00,0.00,3.78,-223.10
2024-04-01 05:50:00,5.54,82.60,0.025,0.00,0.19,0.1,1892.21,0.00,-264.43,0.0,0,0,0,0,0,21.00,0.00,0.00,0.00,3.98,-225.00
2024-04-01 06:00:00,5.26,83.50,0.043,107.80,0.13,0.3,1898.98,0.00,-269.85,0.0,0,0,0,0,0,21.00,0.00,0.00,0.00,4.03,-223.80
2024-04-01 06:10:00,5.59,84.10,0.068,0.00,0.20,0.3,1893.57,0.00,-274.59,0.0,0,0,0,0,0,0.00,0.00,0.00,0.00,4.69,-223.90
2024-04-01 06:20:00,5.83,83.90,0.055,118.30,0.21,0.1,1894.92,0.00,-268.16,0.0,0,0,0,0,0,22.00,0.00,0.00,0.00,5.10,-221.50
2024-04-01 06:30:00,5.87,83.80,0.107,121.30,0.21,0.2,1894.91,0.00,-266.80,0.0,0,0,0,0,0,21.00,0.00,0.00,0.00,5.47,-222.10
2024-04-01 06:40:00,6.29,83.70,0.106,118.20,0.14,0.0,1898.98,0.00,-264.77,0.0,0,0,0,0,0,21.00,0.00,0.00,0.00,6.30,-222.00
2024-04-01 06:50:00,6.37,83.00,0.077,0.00,0.14,0.0,1898.97,0.00,-266.46,0.0,0,0,0,0,0,22.00,0.00,0.00,0.00,6.25,-222.80
2024-04-01 07:00:00,6.57,82.70,0.118,126.50,0.13,0.0,1893.23,0.00,-259.35,0.0,0,0,0,0,0,0.00,0.00,0.00,0.00,6.58,-221.80
2024-04-01 07:10:00,6.65,82.80,0.068,0.00,0.23,0.0,1894.92,0.00,-258.68,0.0,0,0,0,0,0,21.00,27.00,0.00,0.00,6.33,-220.90
2024-04-01 07:20:00,6.69,82.70,0.048,0.00,0.27,0.0,1898.97,0.00,-262.74,0.0,0,0,0,0,0,22.00,0.00,0.00,0.00,6.37,-221.70
2024-04-01 07:30:00,6.73,83.00,0.109,0.00,0.21,0.0,1892.89,0.00,-266.12,0.0,0,0,0,0,0,21.00,0.00,0.00,0.00,6.70,-221.10
2024-04-01 07:40:00,6.78,82.50,0.097,0.00,0.23,0.0,1898.96,0.00,-255.29,0.0,0,0,0,0,0,21.00,0.00,0.00,0.00,6.74,-222.10
2024-04-01 07:50:00,6.94,81.00,0.168,0.00,0.24,0.0,1892.89,0.00,-252.58,0.0,0,0,0,0,0,22.00,0.00,0.00,0.00,7.73,-220.70
2024-04-01 08:00:00,7.10,81.50,0.209,0.00,0.32,0.0,1893.23,0.00,-247.84,0.0,0,0,0,0,0,21.00,0.00,0.00,0.00,7.85,-220.20
2024-04-01 08:10:00,7.85,80.90,0.243,186.30,0.22,0.0,1894.92,0.00,-261.05,0.0,0,0,0,0,0,0.00,0.00,0.00,0.00,8.97,-220.70
2024-04-01 08:20:00,7.97,79.30,0.366,196.20,0.30,0.0,1893.23,0.00,-246.15,0.0,0,0,0,0,0,22.00,0.00,0.00,0.00,10.74,-218.90
2024-04-01 08:30:00,8.55,77.77,0.396,0.00,0.21,0.0,1892.89,0.00,-239.04,0.0,0,0,0,0,0,21.00,0.00,0.00,0.00,11.64,-221.10
2024-04-01 08:40:00,8.75,76.93,0.575,214.10,0.29,0.0,1892.89,0.00,-236.33,0.0,0,0,0,0,0,21.00,0.00,0.00,0.00,14.66,-221.40
2024-04-01 08:50:00,8.75,75.64,0.588,213.40,0.26,0.0,1892.55,0.00,-222.11,0.0,0,0,0,0,0,22.00,0.00,0.00,0.00,16.06,-222.40
2024-04-01 09:00:00,9.58,72.86,0.636,214.20,0.20,0.0,1896.61,0.00,-219.74,0.0,0,0,0,0,0,21.00,0.00,0.00,0.00,18.71,-226.70
2024-04-01 09:10:00,9.95,67.28,0.596,0.00,0.30,0.0,1898.98,0.00,-240.73,0.0,0,0,0,0,0,22.00,0.00,0.00,0.00,15.40,-228.20
2024-04-01 09:20:00,10.03,66.09,0.681,0.00,0.21,0.0,1896.95,0.00,-256.98,0.0,0,0,0,0,0,22.00,0.00,0.00,0.00,16.52,-230.30
2024-04-01 09:30:00,10.53,63.15,0.704,0.00,0.19,0.0,1899.32,0.00,-230.91,0.0,0,0,0,0,0,22.00,26.00,0.00,0.00,17.26,-231.10
2024-04-01 09:40:00,11.06,60.37,0.743,0.00,0.26,0.0,1892.55,0.00,-229.22,0.0,0,0,0,0,0,0.00,0.00,0.00,0.00,19.29,-232.60
2024-04-01 09:50:00,11.68,59.15,0.753,0.00,0.21,0.0,1893.57,0.00,-224.48,0.0,0,0,0,0,0,21.00,0.00,0.00,0.00,21.06,-233.70
2024-04-01 10:00:00,11.39,52.41,0.785,0.00,0.37,0.0,1896.28,0.00,-221.77,0.0,0,0,0,0,0,22.00,0.00,0.00,0.00,17.92,-235.00
2024-04-01 10:10:00,11.67,46.76,0.816,0.00,0.17,0.0,1893.57,0.00,-219.40,0.0,0,0,0,0,0,0.00,0.00,0.00,0.00,20.56,-235.40
2024-04-01 10:20:00,12.45,42.83,0.828,11.00,0.21,0.0,1898.31,0.00,-201.46,0.0,0,0,0,0,0,22.00,0.00,0.00,0.00,21.09,-235.80
2024-04-01 10:30:00,12.11,39.21,0.840,0.00,0.40,0.0,1898.31,0.00,-213.98,0.0,0,0,0,0,0,22.00,0.00,0.00,0.00,19.55,-235.90
2024-04-01 10:40:00,12.96,38.77,0.847,0.00,0.62,0.0,1898.31,0.00,-231.93,0.0,0,0,0,0,0,0.00,0.00,0.00,0.00,18.17,-236.40
2024-04-01 10:50:00,12.42,41.65,0.862,0.00,1.04,0.0,1893.57,0.00,-233.96,0.0,0,0,0,0,0,22.00,0.00,0.00,0.00,17.50,-236.60
2024-04-01 11:00:00,13.12,39.28,0.875,0.00,0.45,0.0,1892.55,0.00,-229.90,0.0,0,0,0,0,0,21.00,0.00,0.00,0.00,15.15,-236.90
2024-04-01 11:10:00,12.96,37.31,0.950,0.00,0.34,0.0,1894.92,0.00,-195.36,0.0,0,0,0,0,0,22.00,0.00,0.00,0.00,14.03,-236.40
2024-04-01 11:20:00,13.82,37.07,1.036,0.00,0.39,0.0,1898.31,0.00,-207.89,0.0,0,0,0,0,0,0.00,27.00,0.00,0.00,14.86,-237.00
2024-04-01 11:30:00,13.62,33.86,0.984,0.00,0.33,0.0,1897.63,0.00,-230.91,0.0,0,0,0,0,0,22.00,0.00,0.00,0.00,13.95,-237.60
2024-04-01 11:40:00,13.20,33.79,0.511,0.00,0.83,0.0,1892.21,0.00,-231.59,0.0,0,0,0,0,0,22.00,0.00,0.00,0.00,14.98,-237.80
2024-04-01 11:50:00,13.70,28.71,0.784,0.00,0.73,0.0,1892.55,0.00,-195.02,0.0,0,0,0,0,0,22.00,0.00,0.00,0.00,14.90,-238.50
2024-04-01 12:00:00,14.51,27.32,0.633,0.00,0.41,0.0,1893.57,0.00,-201.46,0.0,0,0,0,0,0,0.00,0.00,0.00,0.00,16.20,-238.10
2024-04-01 12:10:00,14.93,27.36,0.710,0.00,0.92,0.0,1893.23,0.00,-205.52,0.0,0,0,0,0,0,22.00,0.00,0.00,0.00,17.37,-238.30
2024-04-01 12:20:00,14.43,25.90,0.788,203.40,0.52,0.0,1894.24,0.00,-200.10,0.0,0,0,0,0,0,22.00,0.00,0.00,0.00,16.13,-238.40
2024-04-01 12:30:00,14.26,28.07,0.792,0.00,1.43,0.0,1898.98,0.00,-221.09,0.0,0,0,0,0,0,22.00,0.00,0.00,0.00,15.46,-238.40
2024-04-01 12:40:00,13.93,27.49,0.843,0.00,1.21,0.0,1894.92,0.00,-206.87,0.0,0,0,0,0,0,22.00,0.00,0.00,0.00,15.13,-238.50
2024-04-01 12:50:00,13.93,28.47,0.594,203.10,0.73,0.0,1901.03,0.00,-213.31,0.0,0,0,0,0,0,22.00,0.00,0.00,0.00,16.17,-238.60
2024-04-01 13:00:00,13.43,28.78,0.518,0.00,1.76,0.0,1903.07,0.00,-215.68,0.0,0,0,0,0,0,22.00,0.00,0.00,0.00,15.67,-238.80
2024-04-01 13:10:00,13.43,29.19,0.609,0.00,1.26,0.0,1903.05,0.00,-220.42,0.0,0,0,0,0,0,22.00,0.00,0.00,0.00,17.16,-239.10
2024-04-01 13:20:00,13.97,31.66,0.437,0.00,0.74,0.0,1903.73,0.00,-234.98,0.0,0,0,0,0,0,22.00,27.00,0.00,0.00,17.90,-239.20
2024-04-01 13:30:00,13.48,31.22,0.452,0.00,1.44,0.0,1896.98,0.00,-229.22,0.0,0,0,0,0,0,22.00,0.00,0.00,0.00,15.42,-239.30
2024-04-01 13:40:00,13.85,32.00,0.417,0.00,1.96,0.0,1903.39,0.00,-234.64,0.0,0,0,0,0,0,43.00,0.00,0.00,0.00,17.62,-239.30
2024-04-01 13:50:00,13.98,33.21,0.581,0.00,0.80,0.0,1900.35,0.00,-253.60,0.0,0,0,0,0,0,22.00,0.00,0.00,0.00,16.62,-239.20
2024-04-01 14:00:00,13.93,32.78,0.633,0.00,1.10,0.0,1896.31,0.00,-241.75,0.0,0,0,0,0,0,22.00,0.00,0.00,0.00,15.96,-239.20
2024-04-01 14:10:00,13.36,36.23,0.870,210.30,1.44,0.0,1904.44,0.00,-244.46,0.0,0,0,0,0,0,22.00,0.00,0.00,0.00,15.22,-239.20
2024-04-01 14:20:00,13.77,36.26,0.876,0.00,1.57,0.0,1897.69,0.00,-245.48,0.0,0,0,0,0,0,21.00,0.00,0.00,0.00,15.59,-239.20
2024-04-01 14:30:00,13.60,37.89,0.585,0.00,0.94,0.0,1899.11,0.00,-247.52,0.0,0,0,0,0,0,22.00,0.00,0.00,0.00,15.30,-239.20
2024-04-01 14:40:00,13.85,36.09,0.727,0.00,0.99,0.0,1904.45,0.00,-252.93,0.0,0,0,0,0,0,44.00,0.00,0.00,0.00,15.83,-239.20
2024-04-01 14:50:00,14.01,36.84,0.673,0.00,0.80,0.0,1903.13,0.00,-255.30,0.0,0,0,0,0,0,22.00,0.00,0.00,0.00,15.79,-239.20
2024-04-01 15:00:00,13.77,37.01,0.568,209.00,0.82,0.0,1898.43,0.00,-252.26,0.0,0,0,0,0,0,22.00,0.00,0.00,0.00,14.93,-239.20
2024-04-01 15:10:00,13.18,38.09,0.534,0.00,0.44,0.0,1897.71,0.00,-253.27,0.0,0,0,0,0,0,22.00,0.00,0.00,0.00,14.59,-239.20
2024-04-01 15:20:00,13.39,38.36,0.503,225.50,1.28,0.0,1906.17,0.00,-255.30,0.0,0,0,0,0,0,21.00,27.00,0.00,0.00,14.18,-239.10
2024-04-01 15:30:00,13.60,38.87,0.547,225.10,0.65,0.0,1901.24,0.00,-260.74,0.0,0,0,0,0,0,22.00,0.00,0.00,0.00,15.43,-238.80
2024-04-01 15:40:00,13.93,37.82,0.325,0.00,0.56,0.0,1903.19,0.00,-275.96,0.0,0,0,0,0,0,44.00,0.00,0.00,0.00,15.05,-238.80
2024-04-01 15:50:00,13.09,40.56,0.197,0.00,0.26,0.0,1898.45,0.00,-267.50,0.0,0,0,0,0,0,22.00,0.00,0.00,0.00,14.09,-238.80
2024-04-01 16:00:00,12.86,42.76,0.142,0.00,0.29,0.0,1900.75,0.00,-275.95,0.0,0,0,0,0,0,22.00,0.00,0.00,0.00,13.27,-238.40
2024-04-01 16:10:00,12.58,43.79,0.045,0.00,0.22,0.0,1896.73,0.00,272.43,0.0,0,0,0,0,0,22.00,0.00,0.00,0.00,12.38,-238.30
2024-04-01 16:20:00,12.16,45.09,0.059,0.00,0.48,0.0,1901.16,0.00,-233.60,0.0,0,0,0,0,0,21.00,0.00,0.00,0.00,11.88,-238.20
2024-04-01 16:30:00,10.99,45.91,0.360,0.00,0.31,0.0,1903.36,0.00,827.48,0.0,0,0,0,0,0,22.00,0.00,0.00,0.00,11.32,-237.50
2024-04-01 16:40:00,11.87,46.73,0.017,0.00,0.26,0.0,1897.01,0.00,-229.56,0.0,0,0,0,0,0,22.00,0.00,0.00,0.00,11.30,-238.00
2024-04-01 16:50:00,11.74,48.08,0.023,0.00,0.33,0.0,1904.43,0.00,-264.10,0.0,0,0,0,0,0,44.00,0.00,0.00,0.00,11.00,-238.20
2024-04-01 17:00:00,11.33,53.33,0.047,0.00,0.33,0.0,1896.28,0.00,-50.45,0.0,0,0,0,0,0,21.00,0.00,0.00,0.00,10.35,-238.00
2024-04-01 17:10:00,11.25,53.35,0.024,0.00,0.22,0.0,1903.19,0.00,-122.20,0.0,0,0,0,0,0,22.00,0.00,0.00,0.00,10.60,-237.40
2024-04-01 17:20:00,11.01,55.19,0.007,0.00,0.32,0.0,1895.17,0.00,-277.62,0.0,0,0,0,0,0,22.00,0.00,0.00,0.00,9.99,-236.80
2024-04-01 17:30:00,10.97,58.00,0.000,0.00,0.18,0.0,1898.29,0.00,-283.05,0.0,0,0,0,0,0,21.00,0.00,0.00,0.00,9.78,-236.30
2024-04-01 17:40:00,10.58,63.04,0.000,0.00,0.28,0.0,1901.69,0.00,20.99,0.0,0,0,0,0,0,22.00,27.00,0.00,0.00,9.10,-234.80
2024-04-01 17:50:00,9.61,71.15,0.000,0.00,1.93,0.0,1891.35,0.00,586.23,0.0,0,0,0,0,1,22.00,0.00,0.00,0.00,7.22,-233.90
2024-04-01 18:00:00,9.04,78.58,0.003,0.00,0.53,0.0,1898.44,0.00,-244.69,0.0,0,0,0,0,0,22.00,0.00,0.00,0.00,6.94,-233.10
2024-04-01 18:10:00,8.32,81.40,0.000,211.30,0.45,0.0,1895.45,0.00,-273.89,0.0,0,0,0,0,0,21.00,0.00,0.00,0.00,6.35,-232.80
2024-04-01 18:20:00,8.23,83.10,0.001,215.10,0.28,0.0,1896.25,0.00,-284.40,0.0,0,0,0,0,1,22.00,0.00,0.00,0.00,6.43,-233.40
2024-04-01 18:30:00,8.27,83.80,0.000,170.60,0.26,0.0,1895.26,0.00,-296.60,0.0,0,0,0,0,0,0.00,0.00,0.00,0.00,6.30,-234.40
2024-04-01 18:40:00,8.18,83.90,0.000,163.30,0.28,0.0,1896.28,0.00,-294.23,0.0,0,0,0,0,0,21.00,0.00,0.00,0.00,6.29,-235.50
2024-04-01 18:50:00,8.18,83.90,0.000,162.50,0.20,0.0,1893.57,0.00,-299.98,0.0,0,0,0,0,0,22.00,0.00,0.00,0.00,6.13,-234.90
2024-04-01 19:00:00,8.01,83.80,0.000,183.70,0.26,0.0,1896.28,0.00,-301.34,0.0,0,0,0,0,0,22.00,0.00,0.00,0.00,5.88,-234.70
2024-04-01 19:10:00,7.85,84.70,0.000,0.00,0.16,0.0,1895.94,0.00,-309.80,0.5,0,0,0,0,0,8.00,0.00,0.00,0.00,5.84,-233.10
2024-04-01 19:20:00,7.72,84.60,0.000,179.10,0.24,0.0,1894.92,0.00,-304.38,0.0,0,0,0,0,0,13.00,0.00,0.00,0.00,5.88,-233.80
2024-04-01 19:30:00,7.93,84.50,0.000,155.00,0.15,0.0,1893.57,0.00,-304.38,0.0,0,0,0,0,0,22.00,0.00,0.00,0.00,5.96,-233.80
2024-04-01 19:40:00,8.01,83.40,0.000,170.60,0.16,0.0,1893.91,0.00,-303.37,0.0,0,0,0,0,0,21.00,0.00,0.00,0.00,6.04,-233.70
2024-04-01 19:50:00,8.01,81.70,0.000,171.50,0.23,0.0,1896.61,0.00,-304.72,0.0,0,0,0,0,0,22.00,0.00,0.00,0.00,6.17,-233.90
2024-04-01 20:00:00,8.05,80.10,0.000,0.00,0.52,0.0,1896.95,0.00,-294.23,0.0,0,0,0,0,0,0.00,0.00,0.00,0.00,6.58,-234.20
2024-04-01 20:10:00,8.34,79.09,0.001,190.00,1.10,0.0,1894.58,0.00,-301.00,0.0,0,0,0,0,0,21.00,0.00,0.00,0.00,6.74,-234.00
2024-04-01 20:20:00,9.41,74.35,0.000,219.50,1.43,0.0,1896.61,0.00,-298.63,0.0,0,0,0,0,0,22.00,0.00,0.00,0.00,7.94,-233.80
2024-04-01 20:30:00,9.66,73.74,0.000,0.00,1.82,0.0,1896.61,0.00,-296.26,0.0,0,0,0,0,0,21.00,27.00,0.00,0.00,8.10,-233.80
2024-04-01 20:40:00,9.37,73.54,0.000,0.00,2.30,0.0,1897.97,0.00,-294.90,0.0,0,0,0,0,0,22.00,0.00,0.00,0.00,7.81,-233.30
2024-04-01 20:50:00,9.25,74.28,0.000,0.00,2.21,0.0,1897.97,0.00,-297.61,0.0,0,0,0,0,0,0.00,0.00,0.00,0.00,7.61,-233.60
2024-04-01 21:00:00,8.92,74.59,0.000,0.00,1.59,0.0,1896.61,0.00,-278.99,0.0,0,0,0,0,0,21.00,0.00,0.00,0.00,7.40,-232.90
2024-04-01 21:10:00,8.83,74.69,0.000,217.70,1.63,0.0,1896.95,0.00,-293.55,0.0,0,0,0,0,0,22.00,0.00,0.00,0.00,7.15,-233.10
2024-04-01 21:20:00,8.75,74.12,0.000,218.00,1.22,0.0,1896.95,0.00,-292.53,0.0,0,0,0,0,0,21.00,0.00,0.00,0.00,7.07,-233.00
2024-04-01 21:30:00,8.67,73.74,0.000,0.00,1.09,0.0,1894.24,0.00,-291.52,0.0,0,0,0,0,0,0.00,0.00,0.00,25.00,6.99,-233.40
2024-04-01 21:40:00,8.59,73.71,0.000,0.00,1.06,0.0,1896.93,0.00,-289.82,0.0,0,0,0,0,0,22.00,0.00,0.00,0.00,6.91,-233.60
2024-04-01 21:50:00,8.51,72.63,0.000,0.00,1.09,0.0,1893.22,0.00,-294.57,0.0,0,0,0,0,0,21.00,0.00,0.00,0.00,6.70,-233.90
2024-04-01 22:00:00,8.42,72.66,0.000,0.00,0.46,0.0,1894.92,0.00,-295.58,0.0,0,0,0,0,0,21.00,0.00,0.00,0.00,6.58,-233.90
2024-04-01 22:10:00,8.38,71.78,0.000,212.40,0.52,0.0,1893.91,0.00,-286.44,0.0,0,0,0,0,0,0.00,0.00,0.00,0.00,6.50,-234.30
2024-04-01 22:20:00,8.30,72.12,0.000,213.60,0.32,0.0,1894.24,0.00,-293.89,0.0,0,0,0,0,0,22.00,0.00,0.00,0.00,6.41,-234.70
2024-04-01 22:30:00,8.38,72.32,0.000,225.50,0.16,0.0,1895.60,0.00,-295.92,0.0,0,0,0,0,0,21.00,0.00,0.00,0.00,6.21,-234.10
2024-04-01 22:40:00,8.34,72.49,0.000,224.20,0.23,0.0,1897.63,0.00,-294.23,0.0,0,0,0,0,0,22.00,0.00,0.00,0.00,6.17,-234.20
2024-04-01 22:50:00,8.18,72.42,0.000,214.30,0.22,0.0,1894.24,0.00,-296.60,0.0,0,0,0,0,0,0.00,0.00,0.00,0.00,6.08,-234.30
2024-04-01 23:00:00,8.22,72.02,0.000,232.10,0.12,0.0,1897.63,0.00,-297.27,0.0,0,0,0,0,0,21.00,0.00,0.00,0.00,5.92,-234.50
2024-04-01 23:10:00,7.97,72.32,0.000,214.60,0.12,0.0,1897.63,0.00,-295.92,0.0,0,0,0,0,0,22.00,0.00,0.00,0.00,5.80,-234.50
2024-04-01 23:20:00,7.68,73.81,0.000,215.00,0.19,0.0,1896.95,0.00,-295.24,0.0,0,0,0,0,0,21.00,0.00,0.00,0.00,5.63,-234.50
2024-04-01 23:30:00,7.56,75.37,0.000,205.20,0.18,0.0,1894.24,0.00,-298.63,0.0,0,0,0,0,0,0.00,0.00,0.00,0.00,5.43,-233.80
2024-04-01 23:40:00,7.39,76.65,0.000,194.20,0.17,0.0,1893.91,0.00,-294.23,0.0,0,0,0,0,0,21.00,27.00,0.00,0.00,5.34,-233.80
2024-04-01 23:50:00,7.35,76.38,0.000,127.90,0.17,0.0,1897.63,0.00,-298.97,0.0,0,0,0,0,0,22.00,0.00,0.00,0.00,5.14,-233.50
2024-04-02 00:00:00,7.43,76.28,0.000,138.80,0.17,0.0,1897.63,0.00,-300.32,0.0,0,0,0,0,0,21.00,0.00,0.00,0.00,5.30,-232.60
2024-04-02 00:10:00,7.39,75.84,0.001,163.30,0.20,0.0,1897.63,0.00,-301.68,0.0,0,0,0,0,0,0.00,0.00,0.00,0.00,5.34,-231.60
2024-04-02 00:20:00,7.35,75.37,0.000,146.60,0.19,0.0,1894.24,0.00,-311.16,0.0,0,0,0,0,0,22.00,0.00,0.00,0.00,5.47,-234.30
2024-04-02 00:30:00,7.35,74.83,0.000,163.80,0.22,0.0,1897.63,0.00,-306.08,0.0,0,0,0,0,0,21.00,0.00,0.00,0.00,5.55,-233.70
2024-04-02 00:40:00,7.35,74.86,0.000,164.80,0.19,0.0,1894.92,0.00,-305.74,0.0,0,0,0,0,0,0.00,0.00,0.00,0.00,5.63,-231.80
2024-04-02 00:50:00,7.35,74.49,0.001,162.20,0.16,0.0,1894.58,0.00,-304.38,0.0,0,0,0,0,0,21.00,0.00,0.00,0.00,5.59,-232.10
2024-04-02 01:00:00,7.43,74.12,0.000,147.50,0.18,0.0,1897.29,0.00,-305.06,0.0,0,0,0,0,0,22.00,0.00,0.00,0.00,5.67,-231.80
2024-04-02 01:10:00,7.43,73.54,0.000,170.40,0.20,0.0,1896.61,0.00,-303.37,0.0,0,0,0,0,0,21.00,0.00,0.00,0.00,5.67,-231.60
2024-04-02 01:20:00,7.43,73.54,0.000,175.60,0.19,0.0,1894.24,0.00,-304.38,0.0,0,0,0,0,0,0.00,0.00,0.00,0.00,6.00,-231.80
2024-04-02 01:30:00,7.52,73.10,0.000,163.30,0.19,0.0,1896.95,0.00,-302.35,0.0,0,0,0,0,0,22.00,0.00,0.00,0.00,5.88,-231.70
2024-04-02 01:40:00,7.52,72.35,0.000,144.10,0.17,0.0,1897.29,0.00,-307.77,0.0,0,0,0,0,0,21.00,0.00,0.00,0.00,5.92,-231.80
2024-04-02 01:50:00,7.68,71.75,0.000,160.30,0.20,0.0,1896.61,0.00,-303.37,0.0,0,0,0,0,0,0.00,0.00,0.00,0.00,5.92,-231.00
2024-04-02 02:00:00,7.52,71.58,0.000,149.30,0.17,0.0,1893.57,0.00,-302.69,0.0,0,0,0,0,0,21.00,0.00,0.00,0.00,5.71,-231.70
2024-04-02 02:10:00,7.43,71.68,0.000,132.50,0.20,0.0,1894.24,0.00,-303.37,0.0,0,0,0,0,0,22.00,0.00,0.00,0.00,5.51,-232.30
2024-04-02 02:20:00,7.52,71.54,0.000,165.70,0.24,0.0,1896.28,0.00,-304.38,0.0,0,0,0,0,0,21.00,27.00,0.00,0.00,5.51,-231.40
2024-04-02 02:30:00,7.27,73.03,0.000,171.10,0.17,0.0,1896.95,0.00,-301.34,0.0,0,0,0,0,0,0.00,0.00,0.00,0.00,5.59,-231.60
2024-04-02 02:40:00,7.10,74.25,0.000,193.90,0.27,0.0,1897.63,0.00,-300.66,0.0,0,0,0,0,0,22.00,0.00,0.00,0.00,5.43,-232.30
2024-04-02 02:50:00,7.10,74.66,0.000,180.70,0.26,0.0,1896.28,0.00,-300.66,0.0,0,0,0,0,0,21.00,0.00,0.00,0.00,5.18,-231.40
2024-04-02 03:00:00,6.94,75.17,0.000,169.60,0.22,0.0,1894.58,0.00,-301.68,0.0,0,0,0,0,0,0.00,0.00,0.00,0.00,5.01,-231.50
2024-04-02 03:10:00,6.86,75.37,0.000,154.20,0.24,0.0,1893.57,0.00,-308.11,0.0,0,0,0,0,0,21.00,0.00,0.00,0.00,4.36,-232.60
2024-04-02 03:20:00,6.77,76.65,0.000,171.20,0.19,0.1,1898.31,0.00,-310.14,0.0,0,0,0,0,0,22.00,0.00,0.00,0.00,4.44,-231.50
2024-04-02 03:30:00,6.40,77.40,0.000,200.20,0.24,0.0,1894.24,0.00,-308.45,0.0,0,0,0,0,0,21.00,0.00,0.00,0.00,3.99,-231.60
2024-04-02 03:40:00,5.99,79.53,0.000,208.50,0.22,0.1,1897.97,0.00,-307.77,0.0,0,0,0,0,0,0.00,0.00,0.00,0.00,3.70,-230.90
2024-04-02 03:50:00,5.91,80.60,0.000,170.20,0.23,0.1,1897.63,0.00,-309.12,0.0,0,0,0,0,0,22.00,0.00,0.00,0.00,3.66,-231.90
2024-04-02 04:00:00,5.79,82.30,0.000,187.30,0.19,0.1,1893.55,0.00,-313.86,0.0,0,0,0,0,0,21.00,0.00,0.00,0.00,3.53,-232.30
2024-04-02 04:10:00,5.62,83.50,0.000,198.30,0.20,0.3,1895.58,0.00,-310.14,0.0,0,0,0,0,0,0.00,0.00,0.00,0.00,3.53,-231.00
2024-04-02 04:20:00,5.58,84.00,0.000,251.10,0.24,0.3,1897.63,0.00,-308.11,0.0,0,0,0,0,0,21.00,0.00,0.00,0.00,3.50,-232.40
2024-04-02 04:30:00,5.38,84.70,0.000,182.20,0.26,0.3,1893.91,0.00,-317.59,0.0,0,0,0,0,0,22.00,0.00,0.00,0.00,3.29,-230.20
2024-04-02 04:40:00,5.38,85.20,0.000,170.30,0.24,0.3,1897.63,0.00,-312.17,0.0,0,0,0,0,0,21.00,0.00,0.00,0.00,3.37,-231.80
2024-04-02 04:50:00,5.21,85.80,0.000,195.00,0.24,0.3,1896.95,0.00,-312.17,0.0,0,0,0,0,0,0.00,0.00,0.00,0.00,3.08,-230.00
2024-04-02 05:00:00,5.09,86.40,0.000,200.20,0.26,0.4,1897.60,0.00,-314.20,0.0,0,0,0,0,0,21.00,0.00,0.00,0.00,3.00,-230.00
2024-04-02 05:10:00,4.98,86.90,0.000,197.40,0.29,0.4,1894.92,0.00,-314.20,0.0,0,0,0,0,0,22.00,0.00,0.00,0.00,2.89,-227.40
2024-04-02 05:20:00,4.97,87.40,0.000,183.00,0.24,0.4,1897.62,0.00,-315.90,0.0,0,0,0,0,0,0.00,27.00,0.00,0.00,2.92,-229.20
2024-04-02 05:30:00,4.80,87.50,0.002,169.10,0.26,0.4,1896.61,0.00,-319.28,0.0,0,0,0,0,0,21.00,0.00,0.00,0.00,2.67,-225.20
2024-04-02 05:40:00,4.89,88.10,0.010,0.00,0.26,0.5,1897.60,0.00,-316.57,0.0,0,0,0,0,0,22.00,0.00,0.00,0.00,2.88,-229.40
2024-04-02 05:50:00,4.81,88.20,0.025,113.50,0.19,0.5,1898.28,0.00,-315.55,0.0,0,0,0,0,0,0.00,0.00,0.00,0.00,2.84,-230.20
2024-04-02 06:00:00,4.72,88.30,0.043,182.30,0.19,0.5,1898.61,0.00,-322.32,0.0,0,0,0,0,0,21.00,0.00,0.00,0.00,3.01,-231.30
2024-04-02 06:10:00,4.80,88.50,0.051,171.70,0.22,0.5,1894.56,0.00,-325.71,0.0,0,0,0,0,0,21.00,0.00,0.00,0.00,3.33,-230.30
2024-04-02 06:20:00,4.96,88.40,0.066,165.60,0.18,0.6,1897.63,0.00,-325.71,0.0,0,0,0,0,0,0.00,0.00,0.00,0.00,3.70,-231.70
2024-04-02 06:30:00,5.05,88.40,0.118,153.20,0.17,0.5,1893.88,0.00,-324.70,0.0,0,0,0,0,0,22.00,0.00,0.00,0.00,3.99,-232.40
2024-04-02 06:40:00,5.38,88.20,0.158,176.60,0.26,0.5,1894.54,0.00,-311.83,0.0,0,0,0,0,0,21.00,0.00,0.00,0.00,4.48,-230.90
2024-04-02 06:50:00,5.62,87.60,0.195,188.00,0.19,0.4,1898.24,0.00,-333.83,0.0,0,0,0,0,0,0.00,0.00,0.00,0.00,4.97,-230.90
2024-04-02 07:00:00,5.88,87.30,0.239,200.20,0.18,0.3,1897.93,0.00,-339.59,0.0,0,0,0,0,0,21.00,0.00,0.00,0.00,5.72,-230.40
2024-04-02 07:10:00,6.20,85.90,0.176,182.50,0.22,0.3,1895.52,0.00,-335.18,0.0,0,0,0,0,0,22.00,0.00,0.00,0.00,6.79,-230.00
2024-04-02 07:20:00,6.57,84.30,0.197,186.80,0.11,0.1,1895.19,0.00,-300.31,0.0,0,0,0,0,0,0.00,0.00,0.00,0.00,7.03,-229.00
2024-04-02 07:30:00,6.82,83.00,0.257,184.60,0.18,0.0,1893.54,0.00,-296.93,0.0,0,0,0,0,0,21.00,0.00,0.00,0.00,7.33,-227.60
2024-04-02 07:40:00,7.52,81.80,0.302,175.40,0.18,0.0,1897.19,0.00,-294.89,0.0,0,0,0,0,0,21.00,0.00,0.00,0.00,8.19,-228.10
2024-04-02 07:50:00,7.85,78.89,0.371,203.50,0.23,0.0,1898.29,0.00,-293.89,0.0,0,0,0,0,0,0.00,0.00,0.00,0.00,8.60,-229.90
2024-04-02 08:00:00,8.26,76.89,0.419,203.30,0.21,0.0,1894.57,0.00,-289.82,0.0,0,0,0,0,0,22.00,26.00,0.00,0.00,9.05,-231.40
2024-04-02 08:10:00,8.63,72.42,0.452,191.70,0.20,0.0,1898.95,0.00,-288.13,0.0,0,0,0,0,0,21.00,0.00,0.00,0.00,10.33,-233.60
2024-04-02 08:20:00,9.12,68.97,0.496,195.10,0.17,0.0,1897.26,0.00,-284.40,0.0,0,0,0,0,0,22.00,0.00,0.00,0.00,14.62,-234.30